AUA62 EDDB-LOWW

Flight info

Callsign AUA62
Flight time N/A
Altitude 29000
Route LUROS4B LUROS M725 HDO DCT EVIKU DCT BITSI DCT MIKOV MIKOV8W
Aircraft A320/M-SDE3FGHIRWY/LB1

Departure

Time 2026-05-05 20:06
Airport Berlin Brandenburg Airport (EDDB)

Arrival

Time N/A
Airport Vienna International Airport (LOWW)
Time Latitude Longitude Altitude Speed Heading
2026-05-05 19:44 52.36541 13.50496 155 ft 0 kts 69°
2026-05-05 19:49 52.36541 13.50495 155 ft 0 kts 69°
2026-05-05 19:56 52.36537 13.50479 154 ft 3 kts 69°
2026-05-05 19:56 52.36530 13.50448 154 ft 3 kts 69°
2026-05-05 19:56 52.36524 13.50420 154 ft 2 kts 69°
2026-05-05 19:56 52.36516 13.50393 153 ft 3 kts 45°
2026-05-05 19:57 52.36501 13.50377 153 ft 3 kts
2026-05-05 19:57 52.36481 13.50377 153 ft 3 kts 343°
2026-05-05 19:57 52.36470 13.50383 154 ft 1 kts 339°
2026-05-05 19:57 52.36468 13.50385 153 ft 3 kts 339°
2026-05-05 20:00 52.36468 13.50384 153 ft 1 kts 338°
2026-05-05 20:00 52.36476 13.50341 152 ft 11 kts 272°
2026-05-05 20:01 52.36534 13.50264 151 ft 12 kts 340°
2026-05-05 20:01 52.36620 13.50209 151 ft 14 kts 339°
2026-05-05 20:01 52.36708 13.50139 151 ft 14 kts 311°
2026-05-05 20:01 52.36739 13.50066 150 ft 0 kts 313°
2026-05-05 20:02 52.36750 13.50053 149 ft 10 kts 326°
2026-05-05 20:02 52.36782 13.49962 147 ft 0 kts 254°
2026-05-05 20:02 52.36768 13.49900 147 ft 13 kts 249°
2026-05-05 20:03 52.36721 13.49692 147 ft 23 kts 248°
2026-05-05 20:03 52.36661 13.49448 148 ft 24 kts 249°
2026-05-05 20:03 52.36602 13.49198 148 ft 24 kts 249°
2026-05-05 20:03 52.36541 13.48941 148 ft 25 kts 249°
2026-05-05 20:04 52.36476 13.48667 148 ft 27 kts 249°
2026-05-05 20:04 52.36436 13.48447 147 ft 13 kts 285°
2026-05-05 20:04 52.36510 13.48375 148 ft 14 kts 339°
2026-05-05 20:04 52.36621 13.48308 149 ft 20 kts 339°
2026-05-05 20:05 52.36730 13.48349 155 ft 17 kts 59°
2026-05-05 20:05 52.36780 13.48547 156 ft 26 kts 69°
2026-05-05 20:05 52.36936 13.49202 156 ft 96 kts 69°
2026-05-05 20:05 52.37251 13.50533 157 ft 152 kts 69°
2026-05-05 20:06 52.37655 13.52254 648 ft 163 kts 67°
2026-05-05 20:06 52.38064 13.54001 1401 ft 167 kts 68°
2026-05-05 20:06 52.38508 13.55886 1828 ft 188 kts 69°
2026-05-05 20:06 52.39000 13.57988 2247 ft 209 kts 68°
2026-05-05 20:07 52.39554 13.60340 2703 ft 234 kts 68°
2026-05-05 20:07 52.40167 13.62928 3352 ft 251 kts 69°
2026-05-05 20:07 52.40811 13.65638 4219 ft 259 kts 69°
2026-05-05 20:07 52.41470 13.68423 5118 ft 266 kts 69°
2026-05-05 20:08 52.42007 13.71349 6002 ft 272 kts 85°
2026-05-05 20:08 52.41821 13.74435 6827 ft 277 kts 110°
2026-05-05 20:08 52.40820 13.77113 7677 ft 279 kts 137°
2026-05-05 20:08 52.39185 13.78810 8545 ft 281 kts 162°
2026-05-05 20:09 52.37403 13.79299 9216 ft 288 kts 182°
2026-05-05 20:09 52.36154 13.79068 9718 ft 291 kts 194°
2026-05-05 20:09 52.34285 13.77864 10664 ft 287 kts 211°
2026-05-05 20:09 52.32733 13.75893 11736 ft 279 kts 223°